| time (UTC) | temp C | wind direction | speed KPH | gust KPH | rain 1hr cm | rain 24hr cm | rain mn cm | humidity % | barometer mb |
| 20260507164019 | 13 | 345 | 0.0 | 0.0 | 0.00 | 0.00 | 0.00 | 27 | 1016.7 |
| 20260507163520 | 13 | 20 | 0.0 | 0.0 | 0.00 | 0.00 | 0.00 | 30 | 1016.7 |
| 20260507163023 | 13 | 335 | 0.0 | 0.0 | 0.00 | 0.00 | 0.00 | 29 | 1016.8 |
| 20260507162519 | 13 | 5 | 0.0 | 0.0 | 0.00 | 0.00 | 0.00 | 28 | 1016.9 |
| 20260507162023 | 13 | 355 | 0.0 | 0.0 | 0.00 | 0.00 | 0.00 | 30 | 1016.8 |
| 20260507161519 | 13 | 346 | 0.0 | 0.0 | 0.00 | 0.00 | 0.00 | 28 | 1016.9 |
| 20260507161018 | 13 | 340 | 0.0 | 0.0 | 0.00 | 0.00 | 0.00 | 29 | 1016.8 |
| 20260507160518 | 13 | 282 | 0.0 | 0.0 | 0.00 | 0.00 | 0.00 | 32 | 1016.8 |
| 20260507160017 | 13 | 292 | 0.0 | 0.0 | 0.00 | 0.00 | 0.00 | 29 | 1016.8 |
| 20260507155516 | 13 | 317 | 0.0 | 0.0 | 0.00 | 0.00 | 0.00 | 31 | 1016.9 |
| 20260507155015 | 13 | 347 | 0.0 | 0.0 | 0.00 | 0.00 | 0.00 | 31 | 1016.9 |
| 20260507154515 | 13 | 323 | 0.0 | 0.0 | 0.00 | 0.00 | 0.00 | 31 | 1016.9 |
| 20260507154014 | 13 | 340 | 0.0 | 0.0 | 0.00 | 0.00 | 0.00 | 31 | 1017.0 |
| 20260507153513 | 13 | 360 | 0.0 | 0.0 | 0.00 | 0.00 | 0.00 | 31 | 1016.9 |
| 20260507153012 | 13 | 360 | 0.0 | 0.0 | 0.00 | 0.00 | 0.00 | 32 | 1016.9 |
| 20260507152512 | 12 | 331 | 0.0 | 0.0 | 0.00 | 0.00 | 0.00 | 35 | 1016.9 |
| 20260507152011 | 12 | 325 | 0.0 | 0.0 | 0.00 | 0.00 | 0.00 | 34 | 1016.9 |
| 20260507151511 | 12 | 360 | 0.0 | 0.0 | 0.00 | 0.00 | 0.00 | 34 | 1016.8 |
| 20260507151009 | 12 | 5 | 0.0 | 1.6 | 0.00 | 0.00 | 0.00 | 35 | 1016.8 |
| 20260507150513 | 12 | 360 | 0.0 | 1.6 | 0.00 | 0.00 | 0.00 | 34 | 1016.8 |
| 20260507150012 | 12 | 348 | 0.0 | 0.0 | 0.00 | 0.00 | 0.00 | 37 | 1016.8 |
| 20260507145508 | 12 | 23 | 0.0 | 0.0 | 0.00 | 0.00 | 0.00 | 36 | 1016.9 |
| 20260507145008 | 12 | 15 | 0.0 | 0.0 | 0.00 | 0.00 | 0.00 | 36 | 1016.8 |
| 20260507144507 | 12 | 355 | 0.0 | 0.0 | 0.00 | 0.00 | 0.00 | 35 | 1016.8 |
| 20260507144006 | 12 | 355 | 0.0 | 0.0 | 0.00 | 0.00 | 0.00 | 37 | 1016.9 |
| 20260507143504 | 11 | 25 | 0.0 | 0.0 | 0.00 | 0.00 | 0.00 | 38 | 1016.9 |
| 20260507143004 | 11 | 13 | 0.0 | 0.0 | 0.00 | 0.00 | 0.00 | 38 | 1016.9 |
| 20260507142505 | 11 | 360 | 0.0 | 0.0 | 0.00 | 0.00 | 0.00 | 37 | 1016.9 |
| 20260507142004 | 11 | 360 | 0.0 | 0.0 | 0.00 | 0.00 | 0.00 | 36 | 1016.9 |
| 20260507141504 | 11 | 11 | 0.0 | 0.0 | 0.00 | 0.00 | 0.00 | 39 | 1016.9 |
| 20260507141002 | 11 | 17 | 0.0 | 0.0 | 0.00 | 0.00 | 0.00 | 39 | 1016.8 |
| 20260507140502 | 11 | 360 | 0.0 | 0.0 | 0.00 | 0.00 | 0.00 | 37 | 1016.8 |
| 20260507140112 | 11 | 16 | 0.0 | 0.0 | 0.00 | 0.00 | 0.00 | 39 | 1016.7 |
| 20260507135559 | 11 | 19 | 0.0 | 0.0 | 0.00 | 0.00 | 0.00 | 38 | 1016.7 |
| 20260507135103 | 11 | 5 | 0.0 | 0.0 | 0.00 | 0.00 | 0.00 | 40 | 1016.8 |
| 20260507134559 | 10 | 10 | 0.0 | 0.0 | 0.00 | 0.00 | 0.00 | 40 | 1016.8 |
| 20260507134058 | 10 | 26 | 0.0 | 0.0 | 0.00 | 0.00 | 0.00 | 43 | 1017.0 |
| 20260507133557 | 10 | 13 | 0.0 | 0.0 | 0.00 | 0.00 | 0.00 | 45 | 1016.8 |
| 20260507133056 | 10 | 5 | 0.0 | 0.0 | 0.00 | 0.00 | 0.00 | 48 | 1016.7 |
| 20260507132557 | 10 | 355 | 0.0 | 0.0 | 0.00 | 0.00 | 0.00 | 48 | 1016.7 |
| 20260507132056 | 10 | 13 | 0.0 | 0.0 | 0.00 | 0.00 | 0.00 | 49 | 1016.8 |
| 20260507131600 | 10 | 22 | 0.0 | 0.0 | 0.00 | 0.00 | 0.00 | 49 | 1016.8 |
| 20260507131055 | 9 | 9 | 0.0 | 0.0 | 0.00 | 0.00 | 0.00 | 51 | 1016.7 |
| 20260507130554 | 9 | 5 | 0.0 | 0.0 | 0.00 | 0.00 | 0.00 | 53 | 1016.7 |
| 20260507130053 | 8 | 355 | 0.0 | 0.0 | 0.00 | 0.00 | 0.00 | 53 | 1016.7 |
| 20260507125554 | 8 | 10 | 0.0 | 0.0 | 0.00 | 0.00 | 0.00 | 55 | 1016.8 |
| 20260507125053 | 8 | 355 | 0.0 | 0.0 | 0.00 | 0.00 | 0.00 | 55 | 1016.7 |
| 20260507124552 | 8 | 355 | 0.0 | 0.0 | 0.00 | 0.00 | 0.00 | 55 | 1016.7 |
| 20260507124052 | 8 | 355 | 0.0 | 0.0 | 0.00 | 0.00 | 0.00 | 55 | 1016.7 |
| 20260507123552 | 8 | 355 | 0.0 | 0.0 | 0.00 | 0.00 | 0.00 | 56 | 1016.7 |
| 20260507123054 | 7 | 355 | 0.0 | 0.0 | 0.00 | 0.00 | 0.00 | 56 | 1016.7 |
| 20260507122550 | 7 | 355 | 0.0 | 0.0 | 0.00 | 0.00 | 0.00 | 57 | 1016.6 |
| 20260507122051 | 7 | 355 | 0.0 | 0.0 | 0.00 | 0.00 | 0.00 | 57 | 1016.6 |
| 20260507121551 | 7 | 355 | 0.0 | 0.0 | 0.00 | 0.00 | 0.00 | 57 | 1016.7 |
| 20260507121051 | 7 | 355 | 0.0 | 0.0 | 0.00 | 0.00 | 0.00 | 57 | 1016.7 |
| 20260507120550 | 7 | 355 | 0.0 | 0.0 | 0.00 | 0.00 | 0.00 | 57 | 1016.7 |
| 20260507120051 | 7 | 355 | 0.0 | 0.0 | 0.00 | 0.00 | 0.00 | 58 | 1016.7 |
| 20260507115551 | 7 | 355 | 0.0 | 0.0 | 0.00 | 0.00 | 0.00 | 58 | 1016.8 |
| 20260507115050 | 7 | 355 | 0.0 | 0.0 | 0.00 | 0.00 | 0.00 | 59 | 1016.8 |
| 20260507114550 | 6 | 355 | 0.0 | 0.0 | 0.00 | 0.00 | 0.00 | 59 | 1016.8 |
| 20260507114050 | 6 | 355 | 0.0 | 0.0 | 0.00 | 0.00 | 0.00 | 59 | 1016.8 |
| 20260507113550 | 6 | 355 | 0.0 | 0.0 | 0.00 | 0.00 | 0.00 | 59 | 1016.8 |
| 20260507113049 | 6 | 355 | 0.0 | 0.0 | 0.00 | 0.00 | 0.00 | 59 | 1016.7 |
| 20260507112549 | 6 | 355 | 0.0 | 0.0 | 0.00 | 0.00 | 0.00 | 59 | 1016.7 |
| 20260507112049 | 6 | 355 | 0.0 | 0.0 | 0.00 | 0.00 | 0.00 | 60 | 1016.7 |
| 20260507111548 | 6 | 355 | 0.0 | 0.0 | 0.00 | 0.00 | 0.00 | 60 | 1016.7 |
| 20260507111048 | 6 | 355 | 0.0 | 0.0 | 0.00 | 0.00 | 0.00 | 60 | 1016.7 |
| 20260507110546 | 6 | 355 | 0.0 | 0.0 | 0.00 | 0.00 | 0.00 | 61 | 1016.6 |
| 20260507110050 | 6 | 355 | 0.0 | 0.0 | 0.00 | 0.00 | 0.00 | 61 | 1016.6 |
| 20260507105545 | 6 | 355 | 0.0 | 0.0 | 0.00 | 0.00 | 0.00 | 61 | 1016.6 |
| 20260507105045 | 6 | 355 | 0.0 | 0.0 | 0.00 | 0.00 | 0.00 | 61 | 1016.5 |
| 20260507104545 | 6 | 355 | 0.0 | 0.0 | 0.00 | 0.00 | 0.00 | 61 | 1016.5 |
| 20260507104044 | 6 | 355 | 0.0 | 0.0 | 0.00 | 0.00 | 0.00 | 62 | 1016.4 |
| 20260507103541 | 6 | 355 | 0.0 | 0.0 | 0.00 | 0.00 | 0.00 | 62 | 1016.3 |
| 20260507103042 | 6 | 355 | 0.0 | 0.0 | 0.00 | 0.00 | 0.00 | 62 | 1016.2 |
| 20260507102541 | 6 | 355 | 0.0 | 0.0 | 0.00 | 0.00 | 0.00 | 63 | 1016.1 |
| 20260507102040 | 6 | 355 | 0.0 | 0.0 | 0.00 | 0.00 | 0.00 | 63 | 1016.2 |
| 20260507101557 | 6 | 355 | 0.0 | 0.0 | 0.00 | 0.00 | 0.00 | 64 | 1016.1 |
| 20260507101039 | 6 | 355 | 0.0 | 0.0 | 0.00 | 0.00 | 0.00 | 64 | 1016.1 |
| 20260507100539 | 6 | 355 | 0.0 | 0.0 | 0.00 | 0.00 | 0.00 | 64 | 1015.9 |
| 20260507100039 | 6 | 355 | 0.0 | 0.0 | 0.00 | 0.00 | 0.00 | 64 | 1016.0 |
| 20260507095539 | 6 | 355 | 0.0 | 0.0 | 0.00 | 0.03 | 0.00 | 65 | 1016.0 |
| 20260507095038 | 6 | 355 | 0.0 | 0.0 | 0.00 | 0.03 | 0.00 | 65 | 1016.0 |
| 20260507094543 | 6 | 355 | 0.0 | 0.0 | 0.00 | 0.03 | 0.00 | 64 | 1015.9 |
| 20260507094041 | 6 | 355 | 0.0 | 0.0 | 0.00 | 0.03 | 0.00 | 64 | 1015.9 |
| 20260507093537 | 6 | 355 | 0.0 | 0.0 | 0.00 | 0.03 | 0.00 | 64 | 1015.8 |
| 20260507093036 | 6 | 355 | 0.0 | 0.0 | 0.00 | 0.03 | 0.00 | 64 | 1015.8 |
| 20260507092536 | 6 | 355 | 0.0 | 0.0 | 0.00 | 0.03 | 0.00 | 64 | 1015.8 |
| 20260507092034 | 6 | 355 | 0.0 | 0.0 | 0.00 | 0.03 | 0.00 | 64 | 1015.8 |
| 20260507091551 | 6 | 355 | 0.0 | 0.0 | 0.00 | 0.03 | 0.00 | 64 | 1015.7 |
| 20260507091033 | 6 | 355 | 0.0 | 0.0 | 0.00 | 0.03 | 0.00 | 64 | 1015.7 |
| 20260507090533 | 6 | 355 | 0.0 | 0.0 | 0.00 | 0.03 | 0.00 | 64 | 1015.7 |
| 20260507090033 | 6 | 355 | 0.0 | 0.0 | 0.00 | 0.03 | 0.00 | 64 | 1015.6 |
| 20260507085532 | 7 | 355 | 0.0 | 0.0 | 0.00 | 0.13 | 0.00 | 63 | 1015.6 |
| 20260507085032 | 7 | 355 | 0.0 | 0.0 | 0.00 | 0.13 | 0.00 | 63 | 1015.6 |
| 20260507084530 | 7 | 355 | 0.0 | 0.0 | 0.00 | 0.13 | 0.00 | 63 | 1015.5 |
| 20260507084030 | 7 | 355 | 0.0 | 0.0 | 0.00 | 0.13 | 0.00 | 63 | 1015.6 |
| 20260507083530 | 7 | 355 | 0.0 | 0.0 | 0.00 | 0.13 | 0.00 | 63 | 1015.4 |
| 20260507083031 | 7 | 355 | 0.0 | 0.0 | 0.00 | 0.13 | 0.00 | 63 | 1015.4 |
| 20260507082530 | 7 | 355 | 0.0 | 0.0 | 0.00 | 0.13 | 0.00 | 63 | 1015.4 |
| 20260507082029 | 7 | 355 | 0.0 | 0.0 | 0.00 | 0.13 | 0.00 | 63 | 1015.4 |
| 20260507081540 | 7 | 355 | 0.0 | 0.0 | 0.00 | 0.13 | 0.00 | 63 | 1015.4 |
| 20260507081029 | 7 | 355 | 0.0 | 0.0 | 0.00 | 0.13 | 0.00 | 63 | 1015.4 |
| 20260507080527 | 7 | 355 | 0.0 | 0.0 | 0.00 | 0.13 | 0.00 | 62 | 1015.4 |
| 20260507080028 | 7 | 355 | 0.0 | 0.0 | 0.00 | 0.13 | 0.00 | 63 | 1015.5 |
| 20260507075527 | 7 | 355 | 0.0 | 0.0 | 0.00 | 0.13 | 0.00 | 63 | 1015.5 |
| 20260507075027 | 7 | 355 | 0.0 | 0.0 | 0.00 | 0.13 | 0.00 | 63 | 1015.4 |
| 20260507074530 | 7 | 355 | 0.0 | 0.0 | 0.00 | 0.13 | 0.00 | 63 | 1015.4 |
| 20260507074025 | 7 | 355 | 0.0 | 0.0 | 0.00 | 0.13 | 0.00 | 63 | 1015.3 |
| 20260507073525 | 7 | 355 | 0.0 | 0.0 | 0.00 | 0.13 | 0.00 | 63 | 1015.1 |
| 20260507073024 | 7 | 355 | 0.0 | 0.0 | 0.00 | 0.13 | 0.00 | 62 | 1015.2 |
| 20260507072524 | 8 | 355 | 0.0 | 0.0 | 0.00 | 0.13 | 0.00 | 62 | 1015.2 |
| 20260507072025 | 8 | 355 | 0.0 | 0.0 | 0.00 | 0.13 | 0.00 | 63 | 1015.0 |
| 20260507071523 | 8 | 355 | 0.0 | 0.0 | 0.00 | 0.13 | 0.00 | 63 | 1015.2 |
| 20260507071022 | 8 | 355 | 0.0 | 0.0 | 0.00 | 0.13 | 0.00 | 63 | 1015.2 |
| 20260507070522 | 8 | 355 | 0.0 | 0.0 | 0.00 | 0.13 | 0.00 | 63 | 1015.2 |
| 20260507070022 | 8 | 355 | 0.0 | 0.0 | 0.00 | 0.13 | 0.00 | 63 | 1015.3 |
| 20260507065519 | 8 | 355 | 0.0 | 0.0 | 0.00 | 0.30 | 0.00 | 63 | 1015.4 |
| 20260507065019 | 8 | 355 | 0.0 | 0.0 | 0.00 | 0.30 | 0.00 | 63 | 1015.3 |
| 20260507064519 | 8 | 355 | 0.0 | 0.0 | 0.00 | 0.30 | 0.00 | 62 | 1015.4 |
| 20260507064018 | 8 | 355 | 0.0 | 0.0 | 0.00 | 0.30 | 0.00 | 62 | 1015.1 |
| 20260507063518 | 9 | 355 | 0.0 | 0.0 | 0.00 | 0.30 | 0.00 | 62 | 1015.3 |
| 20260507063016 | 9 | 355 | 0.0 | 0.0 | 0.00 | 0.30 | 0.00 | 62 | 1015.4 |
| 20260507062517 | 9 | 355 | 0.0 | 0.0 | 0.00 | 0.30 | 0.00 | 62 | 1015.5 |
| 20260507062015 | 9 | 355 | 0.0 | 0.0 | 0.00 | 0.30 | 0.00 | 62 | 1015.4 |
| 20260507061528 | 9 | 355 | 0.0 | 0.0 | 0.00 | 0.30 | 0.00 | 61 | 1015.5 |
| 20260507061014 | 9 | 355 | 0.0 | 0.0 | 0.00 | 0.30 | 0.00 | 61 | 1015.3 |
| 20260507060513 | 9 | 355 | 0.0 | 0.0 | 0.00 | 0.30 | 0.00 | 60 | 1015.4 |
| 20260507060012 | 10 | 355 | 0.0 | 0.0 | 0.00 | 0.30 | 0.00 | 60 | 1015.2 |
| 20260507055512 | 10 | 355 | 0.0 | 0.0 | 0.00 | 0.38 | 0.00 | 60 | 1015.5 |
| 20260507055012 | 10 | 355 | 0.0 | 0.0 | 0.00 | 0.38 | 0.00 | 59 | 1015.5 |
| 20260507054511 | 10 | 355 | 0.0 | 0.0 | 0.00 | 0.38 | 0.00 | 59 | 1015.7 |
| 20260507054011 | 10 | 355 | 0.0 | 0.0 | 0.00 | 0.38 | 0.00 | 59 | 1015.5 |
| 20260507053511 | 10 | 355 | 0.0 | 0.0 | 0.00 | 0.38 | 0.00 | 59 | 1015.5 |
| 20260507053015 | 10 | 355 | 0.0 | 0.0 | 0.00 | 0.38 | 0.00 | 59 | 1015.5 |
| 20260507052512 | 10 | 355 | 0.0 | 0.0 | 0.00 | 0.38 | 0.00 | 59 | 1015.6 |
| 20260507052010 | 10 | 355 | 0.0 | 0.0 | 0.00 | 0.38 | 0.00 | 59 | 1015.5 |
| 20260507051510 | 10 | 355 | 0.0 | 0.0 | 0.00 | 0.38 | 0.00 | 59 | 1015.4 |
| 20260507051010 | 10 | 355 | 0.0 | 0.0 | 0.00 | 0.38 | 0.00 | 59 | 1015.4 |
| 20260507050509 | 10 | 355 | 0.0 | 0.0 | 0.00 | 0.38 | 0.00 | 59 | 1015.5 |
| 20260507050018 | 10 | 355 | 0.0 | 0.0 | 0.00 | 0.38 | 0.00 | 59 | 1015.6 |
| 20260507045508 | 10 | 355 | 0.0 | 0.0 | 0.00 | 0.66 | 0.00 | 59 | 1015.5 |
| 20260507045007 | 10 | 355 | 0.0 | 0.0 | 0.00 | 0.66 | 0.00 | 59 | 1015.4 |
| 20260507044513 | 10 | 355 | 0.0 | 0.0 | 0.00 | 0.66 | 0.00 | 60 | 1015.2 |
| 20260507044004 | 10 | 355 | 0.0 | 0.0 | 0.00 | 0.66 | 0.00 | 59 | 1015.1 |
| 20260507043504 | 10 | 355 | 0.0 | 0.0 | 0.00 | 0.66 | 0.00 | 59 | 1015.0 |
| 20260507043003 | 10 | 355 | 0.0 | 0.0 | 0.00 | 0.66 | 0.00 | 58 | 1015.0 |
| 20260507042502 | 11 | 355 | 0.0 | 0.0 | 0.00 | 0.66 | 0.00 | 57 | 1015.0 |
| 20260507042002 | 11 | 355 | 0.0 | 0.0 | 0.00 | 0.66 | 0.00 | 57 | 1015.1 |
| 20260507041501 | 11 | 355 | 0.0 | 0.0 | 0.00 | 0.66 | 0.00 | 57 | 1015.3 |
| 20260507041101 | 11 | 339 | 0.0 | 0.0 | 0.00 | 0.66 | 0.00 | 58 | 1015.3 |
| 20260507040603 | 11 | 339 | 0.0 | 0.0 | 0.00 | 0.66 | 0.00 | 58 | 1015.3 |
| 20260507040059 | 11 | 327 | 0.0 | 0.0 | 0.00 | 0.66 | 0.00 | 57 | 1015.3 |
| 20260507035559 | 11 | 327 | 0.0 | 0.0 | 0.00 | 0.69 | 0.66 | 57 | 1015.5 |
| 20260507035059 | 11 | 326 | 0.0 | 0.0 | 0.00 | 0.69 | 0.66 | 57 | 1015.5 |
| 20260507034603 | 11 | 326 | 0.0 | 0.0 | 0.00 | 0.69 | 0.66 | 56 | 1015.4 |
| 20260507034058 | 11 | 326 | 0.0 | 0.0 | 0.00 | 0.69 | 0.66 | 56 | 1015.6 |
| 20260507033558 | 11 | 326 | 0.0 | 0.0 | 0.00 | 0.69 | 0.66 | 55 | 1015.4 |
| 20260507033059 | 11 | 326 | 0.0 | 0.0 | 0.00 | 0.69 | 0.66 | 55 | 1015.5 |
| 20260507032558 | 11 | 326 | 0.0 | 0.0 | 0.00 | 0.69 | 0.66 | 55 | 1015.6 |
| 20260507032057 | 11 | 326 | 0.0 | 0.0 | 0.00 | 0.69 | 0.66 | 55 | 1015.6 |
| 20260507031557 | 11 | 326 | 0.0 | 0.0 | 0.00 | 0.69 | 0.66 | 54 | 1015.6 |
| 20260507031100 | 11 | 326 | 0.0 | 0.0 | 0.00 | 0.69 | 0.66 | 55 | 1015.7 |
| 20260507030555 | 11 | 326 | 0.0 | 0.0 | 0.00 | 0.69 | 0.66 | 55 | 1015.8 |
| 20260507030106 | 11 | 343 | 0.0 | 0.0 | 0.00 | 0.69 | 0.66 | 55 | 1015.6 |
| 20260507025555 | 11 | 343 | 0.0 | 0.0 | 0.00 | 0.79 | 0.66 | 55 | 1015.7 |
| 20260507025055 | 11 | 343 | 0.0 | 0.0 | 0.00 | 0.79 | 0.66 | 57 | 1015.6 |
| 20260507024602 | 11 | 343 | 0.0 | 0.0 | 0.00 | 0.79 | 0.66 | 56 | 1015.5 |
| 20260507024057 | 11 | 343 | 0.0 | 0.0 | 0.00 | 0.79 | 0.66 | 57 | 1015.6 |
| 20260507023556 | 11 | 343 | 0.0 | 0.0 | 0.00 | 0.79 | 0.66 | 58 | 1015.5 |
| 20260507023053 | 11 | 343 | 0.0 | 0.0 | 0.00 | 0.79 | 0.66 | 58 | 1015.4 |
| 20260507022553 | 11 | 343 | 0.0 | 0.0 | 0.00 | 0.79 | 0.66 | 58 | 1015.5 |
| 20260507022052 | 11 | 343 | 0.0 | 0.0 | 0.00 | 0.79 | 0.66 | 57 | 1015.3 |
| 20260507021612 | 11 | 343 | 0.0 | 0.0 | 0.00 | 0.79 | 0.66 | 56 | 1015.2 |
| 20260507021051 | 11 | 343 | 0.0 | 0.0 | 0.00 | 0.79 | 0.66 | 56 | 1015.1 |
| 20260507020550 | 11 | 343 | 0.0 | 0.0 | 0.00 | 0.79 | 0.66 | 56 | 1014.9 |
| 20260507020058 | 11 | 343 | 0.0 | 0.0 | 0.00 | 0.79 | 0.66 | 56 | 1014.9 |
| 20260507015547 | 12 | 343 | 0.0 | 0.0 | 0.00 | 0.84 | 0.66 | 56 | 1014.7 |
| 20260507015050 | 12 | 343 | 0.0 | 0.0 | 0.00 | 0.84 | 0.66 | 55 | 1014.6 |
| 20260507014607 | 12 | 343 | 0.0 | 0.0 | 0.00 | 0.84 | 0.66 | 54 | 1014.6 |
| 20260507014046 | 12 | 343 | 0.0 | 0.0 | 0.00 | 0.84 | 0.66 | 54 | 1014.4 |
| 20260507013547 | 12 | 343 | 0.0 | 0.0 | 0.00 | 0.84 | 0.66 | 54 | 1014.5 |
| 20260507013049 | 12 | 343 | 0.0 | 0.0 | 0.00 | 0.84 | 0.66 | 53 | 1014.4 |
| 20260507012545 | 12 | 343 | 0.0 | 0.0 | 0.00 | 0.84 | 0.66 | 53 | 1014.2 |
| 20260507012044 | 12 | 343 | 0.0 | 0.0 | 0.00 | 0.84 | 0.66 | 53 | 1014.2 |
| 20260507011545 | 12 | 340 | 0.0 | 0.0 | 0.00 | 0.84 | 0.66 | 53 | 1014.3 |
| 20260507011044 | 12 | 340 | 0.0 | 0.0 | 0.00 | 0.84 | 0.66 | 53 | 1014.3 |
| 20260507010548 | 12 | 340 | 0.0 | 0.0 | 0.00 | 0.84 | 0.66 | 53 | 1014.2 |
| 20260507010054 | 12 | 331 | 0.0 | 0.0 | 0.00 | 0.84 | 0.66 | 53 | 1014.1 |
| 20260507005544 | 12 | 331 | 0.0 | 0.0 | 0.00 | 0.86 | 0.66 | 53 | 1014.2 |
| 20260507005045 | 13 | 331 | 0.0 | 0.0 | 0.00 | 0.86 | 0.66 | 53 | 1014.3 |
| 20260507004547 | 13 | 331 | 0.0 | 0.0 | 0.00 | 0.86 | 0.66 | 53 | 1014.0 |
| 20260507004044 | 13 | 331 | 0.0 | 0.0 | 0.00 | 0.86 | 0.66 | 53 | 1014.2 |
| 20260507003544 | 13 | 331 | 0.0 | 0.0 | 0.00 | 0.86 | 0.66 | 53 | 1014.2 |
| 20260507003043 | 13 | 331 | 0.0 | 0.0 | 0.00 | 0.86 | 0.66 | 52 | 1014.1 |
| 20260507002544 | 13 | 331 | 0.0 | 0.0 | 0.00 | 0.86 | 0.66 | 51 | 1014.1 |
| 20260507002045 | 13 | 331 | 0.0 | 0.0 | 0.00 | 0.86 | 0.66 | 51 | 1014.2 |
| 20260507001543 | 13 | 331 | 0.0 | 0.0 | 0.00 | 0.86 | 0.66 | 51 | 1014.3 |
| 20260507001042 | 13 | 331 | 0.0 | 0.0 | 0.00 | 0.86 | 0.66 | 51 | 1014.3 |
| 20260507000542 | 13 | 331 | 0.0 | 0.0 | 0.00 | 0.86 | 0.66 | 52 | 1014.2 |
| 20260507000044 | 13 | 331 | 0.0 | 0.0 | 0.00 | 0.86 | 0.66 | 52 | 1014.2 |
| 20260506235542 | 13 | 331 | 0.0 | 0.0 | 0.00 | 0.91 | 0.66 | 50 | 1014.2 |
| 20260506235041 | 13 | 331 | 0.0 | 0.0 | 0.00 | 0.91 | 0.66 | 50 | 1014.1 |
| 20260506234541 | 13 | 331 | 0.0 | 0.0 | 0.00 | 0.91 | 0.66 | 50 | 1014.0 |
| 20260506234041 | 13 | 331 | 0.0 | 0.0 | 0.00 | 0.91 | 0.66 | 49 | 1013.9 |
| 20260506233541 | 14 | 331 | 0.0 | 0.0 | 0.00 | 0.91 | 0.66 | 48 | 1013.9 |
| 20260506233040 | 14 | 331 | 0.0 | 0.0 | 0.00 | 0.91 | 0.66 | 49 | 1013.8 |
| 20260506232540 | 14 | 331 | 0.0 | 0.0 | 0.00 | 0.91 | 0.66 | 48 | 1013.4 |
| 20260506232141 | 14 | 331 | 0.0 | 0.0 | 0.00 | 0.91 | 0.66 | 47 | 1013.6 |
| 20260506231540 | 14 | 336 | 0.0 | 0.0 | 0.00 | 0.91 | 0.66 | 46 | 1013.7 |
| 20260506231044 | 14 | 346 | 0.0 | 0.0 | 0.00 | 0.91 | 0.66 | 45 | 1013.7 |
| 20260506230544 | 14 | 360 | 0.0 | 0.0 | 0.00 | 0.91 | 0.66 | 44 | 1013.8 |
| 20260506230042 | 14 | 5 | 0.0 | 0.0 | 0.00 | 0.91 | 0.66 | 44 | 1014.0 |
| 20260506225540 | 14 | 350 | 0.0 | 0.0 | 0.00 | 0.97 | 0.66 | 43 | 1013.9 |
| 20260506225040 | 14 | 346 | 0.0 | 0.0 | 0.00 | 0.97 | 0.66 | 45 | 1013.8 |
| 20260506224539 | 14 | 348 | 0.0 | 0.0 | 0.00 | 0.97 | 0.66 | 45 | 1013.9 |
| 20260506224038 | 14 | 348 | 0.0 | 0.0 | 0.00 | 0.97 | 0.66 | 43 | 1014.0 |
| 20260506223538 | 14 | 350 | 0.0 | 0.0 | 0.00 | 0.97 | 0.66 | 44 | 1013.9 |
| 20260506223038 | 14 | 355 | 0.0 | 0.0 | 0.00 | 0.97 | 0.66 | 44 | 1014.2 |
| 20260506222538 | 14 | 343 | 0.0 | 0.0 | 0.00 | 0.97 | 0.66 | 44 | 1014.0 |
| 20260506222037 | 14 | 355 | 0.0 | 0.0 | 0.00 | 0.97 | 0.66 | 44 | 1013.7 |
| 20260506221537 | 14 | 338 | 0.0 | 0.0 | 0.00 | 0.97 | 0.66 | 43 | 1013.5 |
| 20260506221037 | 14 | 344 | 0.0 | 0.0 | 0.00 | 0.97 | 0.66 | 42 | 1013.0 |
| 20260506220537 | 14 | 355 | 0.0 | 0.0 | 0.00 | 0.97 | 0.66 | 42 | 1013.1 |
| 20260506220038 | 15 | 346 | 0.0 | 0.0 | 0.00 | 0.97 | 0.66 | 42 | 1013.2 |
| 20260506215538 | 15 | 341 | 0.0 | 0.0 | 0.00 | 0.99 | 0.66 | 42 | 1013.4 |
| 20260506215037 | 15 | 351 | 0.0 | 0.0 | 0.00 | 0.99 | 0.66 | 41 | 1013.2 |
| 20260506214536 | 15 | 5 | 0.0 | 0.0 | 0.00 | 0.99 | 0.66 | 41 | 1013.3 |
| 20260506214038 | 15 | 9 | 0.0 | 0.0 | 0.00 | 0.99 | 0.66 | 41 | 1013.2 |
| 20260506213635 | 15 | 345 | 0.0 | 0.0 | 0.00 | 0.99 | 0.66 | 40 | 1013.0 |
| 20260506213036 | 15 | 5 | 0.0 | 0.0 | 0.00 | 0.99 | 0.66 | 40 | 1012.5 |
| 20260506212536 | 15 | 360 | 0.0 | 0.0 | 0.00 | 0.99 | 0.66 | 41 | 1013.0 |
| 20260506212035 | 15 | 347 | 0.0 | 0.0 | 0.00 | 0.99 | 0.66 | 40 | 1012.9 |
| 20260506211535 | 15 | 355 | 0.0 | 0.0 | 0.00 | 0.99 | 0.66 | 39 | 1013.1 |
| 20260506211035 | 15 | 342 | 0.0 | 0.0 | 0.00 | 0.99 | 0.66 | 42 | 1013.2 |
| 20260506210537 | 15 | 342 | 0.0 | 0.0 | 0.00 | 0.99 | 0.66 | 40 | 1013.3 |
| 20260506210034 | 15 | 342 | 0.0 | 0.0 | 0.00 | 0.99 | 0.66 | 39 | 1013.6 |
| 20260506205535 | 15 | 336 | 0.0 | 0.0 | 0.00 | 0.99 | 0.66 | 40 | 1013.9 |
| 20260506205036 | 15 | 294 | 0.0 | 0.0 | 0.00 | 0.99 | 0.66 | 42 | 1013.9 |
| 20260506204534 | 15 | 360 | 0.0 | 0.0 | 0.00 | 0.99 | 0.66 | 39 | 1013.8 |
| 20260506204033 | 15 | 360 | 0.0 | 0.0 | 0.00 | 0.99 | 0.66 | 39 | 1013.6 |
| 20260506203533 | 15 | 348 | 0.0 | 0.0 | 0.00 | 0.99 | 0.66 | 43 | 1013.6 |
| 20260506203034 | 15 | 345 | 0.0 | 0.0 | 0.00 | 0.99 | 0.66 | 39 | 1013.6 |
| 20260506202533 | 15 | 360 | 0.0 | 0.0 | 0.00 | 0.99 | 0.66 | 40 | 1013.7 |
| 20260506202033 | 15 | 342 | 0.0 | 0.0 | 0.00 | 0.99 | 0.66 | 42 | 1013.7 |
| 20260506201543 | 15 | 350 | 0.0 | 0.0 | 0.00 | 0.99 | 0.66 | 40 | 1013.6 |
| 20260506201034 | 16 | 291 | 0.0 | 0.0 | 0.00 | 0.99 | 0.66 | 40 | 1013.7 |
| 20260506200532 | 15 | 306 | 0.0 | 0.0 | 0.00 | 0.99 | 0.66 | 40 | 1013.3 |
| 20260506200032 | 15 | 14 | 0.0 | 0.0 | 0.00 | 0.99 | 0.66 | 40 | 1013.4 |
| 20260506195533 | 15 | 338 | 0.0 | 0.0 | 0.00 | 0.99 | 0.66 | 38 | 1013.4 |
| 20260506195032 | 15 | 355 | 0.0 | 0.0 | 0.00 | 0.99 | 0.66 | 40 | 1013.5 |
| 20260506194539 | 15 | 21 | 0.0 | 0.0 | 0.00 | 0.99 | 0.66 | 40 | 1013.5 |
| 20260506194033 | 15 | 337 | 0.0 | 0.0 | 0.00 | 0.99 | 0.66 | 40 | 1013.5 |
| 20260506193535 | 16 | 336 | 0.0 | 0.0 | 0.00 | 0.99 | 0.66 | 40 | 1013.5 |
| 20260506193037 | 15 | 342 | 0.0 | 1.6 | 0.00 | 0.99 | 0.66 | 44 | 1013.6 |
| 20260506192531 | 15 | 329 | 0.0 | 1.6 | 0.00 | 0.99 | 0.66 | 41 | 1013.6 |
| 20260506192031 | 15 | 296 | 0.0 | 0.0 | 0.00 | 0.99 | 0.66 | 39 | 1013.7 |
| 20260506191531 | 15 | 294 | 0.0 | 0.0 | 0.00 | 0.99 | 0.66 | 42 | 1013.9 |
| 20260506191031 | 15 | 344 | 0.0 | 0.0 | 0.00 | 0.99 | 0.66 | 39 | 1013.9 |
| 20260506190530 | 15 | 360 | 0.0 | 0.0 | 0.00 | 0.99 | 0.66 | 39 | 1013.7 |
| 20260506190030 | 16 | 5 | 0.0 | 0.0 | 0.00 | 0.99 | 0.66 | 44 | 1013.6 |
| 20260506185530 | 16 | 302 | 0.0 | 0.0 | 0.00 | 0.99 | 0.66 | 44 | 1013.4 |
| 20260506185028 | 15 | 355 | 0.0 | 1.6 | 0.00 | 0.99 | 0.66 | 40 | 1013.5 |
| 20260506184527 | 15 | 360 | 0.0 | 0.0 | 0.00 | 0.99 | 0.66 | 45 | 1013.3 |
| 20260506184029 | 15 | 5 | 0.0 | 0.0 | 0.00 | 0.99 | 0.66 | 42 | 1013.5 |
| 20260506183526 | 15 | 344 | 0.0 | 0.0 | 0.00 | 0.99 | 0.66 | 42 | 1013.3 |
| 20260506183025 | 15 | 344 | 0.0 | 0.0 | 0.00 | 0.99 | 0.66 | 43 | 1013.1 |
| 20260506182526 | 15 | 298 | 0.0 | 0.0 | 0.00 | 0.99 | 0.66 | 47 | 1013.1 |
| 20260506182028 | 14 | 355 | 0.0 | 0.0 | 0.00 | 0.99 | 0.66 | 44 | 1013.2 |
| 20260506181524 | 14 | 338 | 0.0 | 0.0 | 0.00 | 0.99 | 0.66 | 45 | 1013.2 |
| 20260506181026 | 15 | 350 | 0.0 | 0.0 | 0.00 | 0.99 | 0.66 | 45 | 1013.3 |
| 20260506180525 | 15 | 284 | 0.0 | 0.0 | 0.00 | 0.99 | 0.66 | 45 | 1013.3 |
| 20260506180024 | 14 | 5 | 0.0 | 0.0 | 0.00 | 0.99 | 0.66 | 45 | 1013.0 |
| 20260506175526 | 15 | 26 | 0.0 | 0.0 | 0.00 | 0.99 | 0.66 | 47 | 1013.4 |
| 20260506175023 | 14 | 21 | 0.0 | 0.0 | 0.00 | 0.99 | 0.66 | 47 | 1013.4 |
| 20260506174523 | 14 | 10 | 0.0 | 0.0 | 0.00 | 0.99 | 0.66 | 45 | 1013.5 |
| 20260506174026 | 15 | 34 | 0.0 | 1.6 | 0.00 | 0.99 | 0.66 | 47 | 1013.5 |
| 20260506173525 | 15 | 348 | 0.0 | 1.6 | 0.00 | 0.99 | 0.66 | 50 | 1013.7 |
| 20260506173022 | 14 | 5 | 0.0 | 0.0 | 0.00 | 0.99 | 0.66 | 48 | 1013.7 |
| 20260506172521 | 13 | 24 | 0.0 | 0.0 | 0.00 | 0.99 | 0.66 | 52 | 1013.5 |
| 20260506172024 | 13 | 360 | 0.0 | 0.0 | 0.00 | 0.99 | 0.66 | 49 | 1013.4 |
| 20260506171522 | 13 | 346 | 0.0 | 0.0 | 0.00 | 0.99 | 0.66 | 48 | 1013.4 |
| 20260506171022 | 14 | 360 | 0.0 | 0.0 | 0.00 | 0.99 | 0.66 | 50 | 1013.3 |
| 20260506170521 | 13 | 28 | 0.0 | 1.6 | 0.00 | 0.99 | 0.66 | 48 | 1013.4 |
| 20260506170023 | 13 | 36 | 0.0 | 0.0 | 0.00 | 0.99 | 0.66 | 50 | 1013.5 |
| 20260506165523 | 13 | 355 | 0.0 | 0.0 | 0.00 | 0.99 | 0.66 | 50 | 1013.6 |
| 20260506165025 | 13 | 355 | 0.0 | 0.0 | 0.00 | 0.99 | 0.66 | 48 | 1013.5 |
| 20260506164524 | 13 | 5 | 0.0 | 1.6 | 0.00 | 0.99 | 0.66 | 50 | 1013.6 |